DECAYED

CZ-6A DEB, 60665 (Decayed)

Orbit data source: Space-Track

CZ-6A DEB, 60665 was space debris in LEO originally from a launch on Tue, 06 Aug 2024 UTC launched from the Taiyaun Space Center, China (TSC). Debris objects in space refer to the collection of defunct objects orbiting the Earth. Examples of debris include non-operational satellites, rocket bodies, and fragments generated from explosions, collisions, or faulty payload assembly.

Not visible in the next 10 days
Identifier
60665, 2024-140BS
Orbit
Decayed
Country
Flag of CNCN / PRC
Related business
Manufacturer
SAST
Mission
Decayed spacecraft
Bus & Motor
Unknown
Mass
Unknown
Launch date (UTC)
2024-08-06 (2 years ago)
Launch vehicle
Unknown
Launch site
Taiyaun Space Center, China (TSC)
Object type
Payload
Rocket body
Debris
Shape & HBR
Unknown shape, 0.4 m
Radar Cross Section
Medium (>0.1 m² and <1 m²)

Expand to show TLE details & history
Last TLE update: 1 year ago

TLE from 1 year ago
0 CZ-6A DEB
1 60665U 24140BS  25091.15196916  .03402855  24578-1  47987-2 0  9990
2 60665  88.4660 307.2715 0031680 238.8211 120.9975 16.09172841 35689
Epoch: 2025-04-01T03:38Z
TLE epoch observation values (Epoch: 2025-04-01T03:38:50.135Z)
Latitude
-0.00011°
Longitude
62.80498°
Altitude
263.293 km
Speed
7.743 km/s
True Right ascension
20h 29m 05s
True Declination
0° 00' 00"
Sunlit
Object was in daylight at epoch
Visualization orbit readout
Latitude
Unknown
Longitude
Unknown
Altitude
Unknown
Speed
Unknown
Apparent Right ascension
Unknown
Apparent Declination
Unknown
Sunlit
N/A
Visualization observer readout
Local Sidereal Time
07:20:15
Azimuth
Unknown
Elevation
Unknown
Doppler factor
Unknown
Orbital elements
Apogee altitude
266.788 km
Perigee altitude
224.818 km
Semi-major axis
6,623.94 km
Eccentricity
0.00317
Inclination
88.466°
RAAN
307.2715°
Arg. of periapsis
238.8211°
True anomaly
121.30805°
Mean anomaly
120.9975°
Eccentric anomaly
121.15284°
Mean motion
4.02595 °/min
Orbital period
89.42 mins
BSTAR
0.0047987
Loading maneuver chart data...
Computing Atmospheric mass density...
Loading historical data...
Loading historical data...
Loading historical data...
Loading historical data...
Loading historical data...
Loading historical data...
Loading historical data...

Documentation

Showing up to 5 results
|